Regional Weather Roundup
Issued by NWS Cleveland, OH

Home | Current Version | Previous Version | Text Only | Print | Product List | Glossary Off
Versions: 1 2 3 4 5 6 7 8 9 10 11 12 13 14 15 16 17 18 19 20 21 22 23 24 25 26 27 28 29 30 31 32 33 34 35 36 37 38 39 40 41 42 43 44 45 46 47 48 49 50

000
ASUS41 KCLE 261010
RWRCLE
OHIO REGIONAL WEATHER ROUNDUP
NATIONAL WEATHER SERVICE WILMINGTON, OH
600 AM EDT WED APR 26 2017

NOTE: "FAIR" INDICATES FEW OR NO CLOUDS BELOW 12,000 FEET WITH NO
SIGNIFICANT WEATHER AND/OR OBSTRUCTIONS TO VISIBILITY.

OHZ001>008-015>018-024>027-034-035-043-044-261100-
   NORTHWEST OHIO

CITY           SKY/WX    TMP DP  RH WIND       PRES   REMARKS
DEFIANCE       FAIR      59  53  80 S6        29.66F
FINDLAY        FAIR      58  52  80 SE9       29.68F
TOLEDO EXPRESS MOCLDY    58  55  90 SE5       29.68S
TOLEDO EXEC    FAIR      56  54  93 S6        29.69S
LIMA           FAIR      57  54  89 SE8       29.68F
$$

OHZ009>014-019>023-028>033-038-089-261100-
   NORTHEAST OHIO

CITY           SKY/WX    TMP DP  RH WIND       PRES   REMARKS
CLE-HOPKINS    FAIR      56  51  84 S8        29.75R
CLE-LAKEFRONT  FAIR      57  52  83 SE8       29.72S
CUY CO. ARPT   NOT AVBL
LORAIN-ELYRIA  FAIR      53  50  89 S7        29.73S
ASHTABULA      FAIR      51  51 100 SE7       29.76F
AKRON-CANTON   CLOUDY    54  51  90 SE9       29.76R
WOOSTER        FAIR      49  49 100 SE6       29.75R FOG
MANSFIELD      FAIR      54  53  97 S8        29.74R
YOUNGSTOWN     FAIR      49  48  97 E8        29.76F
$$

OHZ042-051>053-060>062-070>072-077>081-261100-
  SOUTHWEST OHIO

CITY           SKY/WX    TMP DP  RH WIND       PRES   REMARKS
CINC-COVINGTON FAIR      57  54  89 S6        29.70S
CINC-LUNKEN    FOG       53  53 100 CALM      29.72R VSB 1/4
HAMILTON       FAIR      56  55  97 E5        29.71S
DAYTON         FAIR      55  53  93 SE9       29.70F
WRIGHT-PAT AFB FAIR      57  57  99 CALM      29.70S
DAYTON GENERAL FAIR      56  54  93 S7        29.70S
WILMINGTON     FAIR      54  54 100 SE5       29.72R
$$

OHZ036-037-039>041-045>050-054>059-063>069-073>076-082>088-261100-
  CENTRAL AND SOUTHEAST OHIO

CITY           SKY/WX    TMP DP  RH WIND       PRES   REMARKS
COLUMBUS       FAIR      57  54  89 E5        29.72S
OSU AIRPORT    FAIR      57  54  89 SE7       29.72S
BOLTON FIELD   FAIR      53  53  99 CALM      29.73R
RICKENBACK AFB FAIR      52  52  99 CALM      29.72S
NEWARK         FOG       49  47  93 CALM      29.74R VSB 3/4
MARION         FAIR      54  51  90 SE9       29.72S
LANCASTER      FOG       50  48  93 CALM      29.74R VSB 3/4
ZANESVILLE     FOG       51  49  92 CALM      29.75R VSB 3/4
NEW PHILLY     CLOUDY    51  50  96 CALM      29.76S
$$




USA.gov is the U.S. government's official web portal to all federal, state and local government web resources and services.